Regional Weather Roundup
Issued by NWS

Home | Current Version | Previous Version | Graphics & Text | Print | Product List | Glossary On
Versions: 1 2 3 4 5 6 7 8 9 10 11 12 13 14 15 16 17 18 19 20 21 22 23 24 25 26 27 28 29 30 31 32 33 34 35 36 37 38 39 40 41 42 43 44 45 46 47 48 49 50
830
ASUS43 KDTX 191310
RWRMI
MICHIGAN HOURLY REGIONAL WEATHER ROUNDUP
NATIONAL WEATHER SERVICE DETROIT/PONTIAC MI
900 AM EDT THU APR 19 2018

NOTE: "FAIR" INDICATES FEW OR NO CLOUDS BELOW 12,000 FEET WITH NO
SIGNIFICANT WEATHER AND/OR OBSTRUCTION TO VISIBILITY.

MIZ047>049-052>055-059>063-066>070-074>076-081>083-191400-
SOUTHEAST LOWER MICHIGAN

CITY           SKY/WX    TMP DP  RH WIND       PRES   REMARKS
ADRIAN         FAIR      36  29  75 N13       30.08R WCI  27
ALMA           FAIR      35  25  65 NW10      30.11R WCI  27
ANN ARBOR      FAIR      37  26  64 NW15G21   30.06R WCI  28
BAD AXE        PTSUNNY   36  22  58 N15G23    30.04R WCI  26
CARO           FAIR      35  23  63 N12       30.06R WCI  26
DETROIT CITY     N/A    N/A N/A N/A MISG      30.04R
DETROIT        FAIR      39  24  55 N14       30.05R WCI  31
FLINT          FAIR      34  24  67 NW9       30.07R WCI  27
GROSSE ILE     PTSUNNY   38  26  62 N13       30.04R WCI  30
HILLSDALE      FAIR      34  30  86 NW14      30.07R WCI  24
HOWELL         FAIR      36  27  69 NW9G18    30.07R WCI  29

CITY           SKY/WX    TMP DP  RH WIND       PRES   REMARKS
JACKSON        FAIR      36  27  69 NW8       30.09R WCI  30
LAMBERTVILLE   FAIR      38  31  73 NW13G20   30.07R WCI  30
LANSING        FAIR      35  27  72 NW12      30.11R WCI  27
LAPEER         FAIR      34  22  62 N10G17    30.05R WCI  26
MASON          FAIR      37  26  64 NW13      30.09R WCI  29
MONROE         FAIR      37  27  69 NW14G20   30.05R WCI  28
MT. CLEMENS    MOSUNNY   37  28  69 N15       30.02R WCI  28
PONTIAC        FAIR      35  24  64 N15G22    30.03R WCI  25
PORT HOPE        N/A     34  24  67 N15G25    30.02R WCI  24
PORT HURON     CLOUDY    36  23  60 NW10      30.02R WCI  28
TRI CITIES     FAIR      35  22  58 N16       30.09R WCI  25
MIDLAND        FAIR      36  23  60 N10G22    30.09R WCI  28
TROY           FAIR      37  24  60 NW12G17   30.06R WCI  29
SAGINAW HB     FAIR      36  23  60 NW10      30.08R WCI  28
$$
MIZ043>046-050>051-056>058-064>065-071>073-077>080-191400-
SOUTHWEST LOWER MICHIGAN

CITY           SKY/WX    TMP DP  RH WIND       PRES   REMARKS
BATTLE CREEK   FAIR      36  30  79 N9        30.13R WCI  29
BENTON HARBOR  FAIR      39  32  76 N8        30.18R WCI  33
BIG RAPIDS     FAIR      34  20  57 N9G17     30.13R WCI  27
COLDWATER      FAIR      36  33  88 NW10      30.11R WCI  28
FREMONT        FAIR      32  20  61 N9        30.16R WCI  24
HOLLAND        FAIR      37  26  64 N9        30.18R WCI  30
GRAND RAPIDS   FAIR      35  27  72 NW12      30.14R WCI  27
IONIA          FAIR      34  26  72 NW8       30.12R WCI  27
KALAMAZOO      FAIR      37  30  75 NW14      30.14R WCI  28
LUDINGTON      FAIR      37  23  58 N13G18    30.19R WCI  28
MARSHALL       FAIR      35  27  73 NW7       30.11R WCI  29
MOUNT PLEASANT FAIR      37  23  56 NW8G16    30.10R WCI  31
MUSKEGON       FAIR      34  24  67 N8        30.18R WCI  27
SOUTH HAVEN    FAIR      39  32  76 N10G16    30.18R WCI  32
$$
MIZ016>042-191400-
NORTHERN LOWER MICHIGAN

CITY           SKY/WX    TMP DP  RH WIND       PRES   REMARKS
ALPENA         FAIR      32  21  64 N15G23    30.08R WCI  22
BEAVER ISLAND  FAIR      32  25  73 NW14G21   30.19R WCI  22
BELLAIRE       FAIR      34  23  66 NW6G17    30.17R WCI  28
CADILLAC       FAIR      32  22  67 NW10G17   30.12R WCI  23
CHARLEVOIX     FAIR      32  25  74 N15G23    30.20R WCI  22
FRANKFORT      FAIR      37  26  65 N13       30.20R WCI  28
GAYLORD        FAIR      29  20  69 NW9       30.09R HAZE    WCI  20
GRAYLING       FAIR      31  20  64 NW12      30.09R WCI  21
HARBOR SPRINGS FAIR      32  21  65 N8G20     30.14R WCI  25
HOUGHTON LAKE  FAIR      32  20  61 NW15      30.10R WCI  22
MANISTEE       FAIR      38  21  50 N10G16    30.19R WCI  31
OSCODA         FAIR      33  20  59 N21       30.05R WCI  21
PELLSTON       FAIR      31  21  66 N14       30.15R WCI  21
ROGERS CITY    FAIR      30  19  63 N15G24    30.11R WCI  19
TRAVERSE CITY  FAIR      35  24  64 N9        30.17R WCI  28
$$
MIZ007>008-015-191400-
EASTERN UPPER MICHIGAN

CITY           SKY/WX    TMP DP  RH WIND       PRES   REMARKS
KINROSS        FAIR      27  18  69 N13G18    30.14R WCI  16
MACKINAC ISLAN FAIR      32  21  64 N14G21    30.14R WCI  22
NEWBERRY       PTSUNNY   30  24  79 N16G25    30.19R WCI  18
S. S. MARIE    FAIR      32  19  58 N10       30.14R WCI  24
MUNISING         N/A     32  27  81 N14G21    30.28R WCI  22
$$
MIZ004>006-011>014-085-191400-
CENTRAL UPPER MICHIGAN

CITY           SKY/WX    TMP DP  RH WIND       PRES   REMARKS
MANISTIQUE     FAIR      32  26  78 NW18G28   30.21R WCI  20
ESCANABA       FAIR      35  22  58 N13G24    30.24R WCI  26
MENOMINEE      FAIR      34  20  56 N9        30.26R WCI  27
SAWYER-GWINN   SUNNY     30  21  69 N14G20    30.26R WCI  20
$$
MIZ001>003-009>011-084-191400-
WESTERN UPPER MICHIGAN

CITY           SKY/WX    TMP DP  RH WIND       PRES   REMARKS
IRON MOUNTAIN  FAIR      32  20  61 N10       30.26R WCI  24
HOUGHTON       FAIR      33  20  58 N14       30.30R WCI  23
COPPER HARBOR    N/A     34  26  72 N8        30.32R WCI  27
IRONWOOD       FAIR      26  22  84 CALM      30.36R
$$

ABBREVIATIONS USED IN REMARKS
   TC - TEMPERATURE IN CELSIUS
  WCI - WIND CHILL INDEX
   HX - HEAT INDEX
  VSB - VISIBILITY





USA.gov is the U.S. government's official web portal to all federal, state and local government web resources and services.